This is the latest recevied weather packets stored in our database for station/object RN1M-13. If no packets are shown the sender has not sent any weather packets the latest 10 day(s).
| Time | Temp. | Humidity | Pressure | Rain* | Wind** | Luminosity | Snow |
|---|---|---|---|---|---|---|---|
| 1777876233 | 15.56° C | 100% | 1004.3 hPa | - | - | - | - |
| 1777875333 | 15.56° C | 100% | 1004.4 hPa | - | - | - | - |
| 1777874433 | 15.56° C | 100% | 1004.4 hPa | - | - | - | - |
| 1777873541 | 15.56° C | 100% | 1004.6 hPa | - | - | - | - |
| 1777872633 | 15.56° C | 100% | 1004.6 hPa | - | - | - | - |
| 1777871733 | 14.44° C | 100% | 1004.6 hPa | - | - | - | - |
| 1777870835 | 15° C | 100% | 1004.7 hPa | - | - | - | - |
| 1777869941 | 14.44° C | 100% | 1004.8 hPa | - | - | - | - |
| 1777869082 | 13.89° C | 100% | 1004.9 hPa | - | - | - | - |
| 1777869041 | 13.89° C | 100% | 1004.9 hPa | - | - | - | - |
| 1777868141 | 13.89° C | 100% | 1005 hPa | - | - | - | - |
| 1777867241 | 13.33° C | 100% | 1005 hPa | - | - | - | - |
| 1777866341 | 13.33° C | 100% | 1005 hPa | - | - | - | - |
| 1777865440 | 13.33° C | 100% | 1004.9 hPa | - | - | - | - |
| 1777864540 | 12.78° C | 100% | 1005 hPa | - | - | - | - |
| 1777863640 | 13.33° C | 100% | 1004.9 hPa | - | - | - | - |
| 1777862740 | 12.78° C | 100% | 1004.9 hPa | - | - | - | - |
| 1777861840 | 13.33° C | 100% | 1005.2 hPa | - | - | - | - |
| 1777860940 | 12.78° C | 100% | 1005.3 hPa | - | - | - | - |
| 1777860042 | 12.22° C | 100% | 1005.1 hPa | - | - | - | - |
| 1777859148 | 12.22° C | 100% | 1005.2 hPa | - | - | - | - |
| 1777858248 | 12.22° C | 100% | 1005.5 hPa | - | - | - | - |
| 1777857348 | 12.22° C | 100% | 1005.6 hPa | - | - | - | - |
| 1777856448 | 12.22° C | 100% | 1005.5 hPa | - | - | - | - |
| 1777855548 | 12.78° C | 100% | 1005.7 hPa | - | - | - | - |
* Rain since midnight (hover to see other rain measurements)
** Current wind speed in m/s (hover to see current wind gust speed)